Broomfield, CO

9:41 PM MST on February 19, 2018 (GMT -0700)
Jeffco

Weather History for KBJC - April, 2013

Change the Weather History Date:

Monday, April 29, 2013

  Actual Average Record
Temperature  
Mean Temperature 64 °F -  
Max Temperature 77 °F 61 °F 82 °F (2007)
Min Temperature 50 °F 39 °F 23 °F (2005)
Degree Days  
Heating Degree Days 2    
Growing Degree Days 14 (Base 50)    
Moisture  
Dew Point 24 °F    
Average Humidity 29    
Maximum Humidity 50    
Minimum Humidity 8    
Precipitation  
Precipitation 0.00 in - - ()
Sea Level Pressure  
Sea Level Pressure 29.85 in    
Wind  
Wind Speed 9 mph (SW)    
Max Wind Speed 25 mph    
Max Gust Speed 34 mph    
Visibility 10 miles    
Events      
Averages and records for this station are not official NWS values.
T = Trace of Precipitation, MM = Missing Value Source: NWS Daily Summary

Daily Weather History Graph

Daily Weather History Graph

Search for Another Location

Airport or City:

Trip Planner

Search our weather history database for the weather conditions in past years. The results will help you decide how hot, cold, wet, or windy it might be!

Date:

Astronomy

Apr. 29, 2013 Rise Set
Actual Time 6:02 AM MDT 7:53 PM MDT
Civil Twilight 5:33 AM MDT 8:22 PM MDT
Nautical Twilight 4:58 AM MDT 8:58 PM MDT
Astronomical Twilight 4:20 AM MDT 9:36 PM MDT
Moon No Moon Rise 9:26 AM MDT (4/29)
Length of Visible Light 14h 48m
Length of Day
13h 50m
Waning Gibbous, 79% of the Moon is Illuminated
Apr 29
Waning Gibbous
May 2
Last Quarter
May 9
New
May 17
First Quarter
May 24
Full

Hourly Weather History & Observations

Time (MDT) Temp. Dew Point Humidity Pressure Visibility Wind Dir Wind Speed Gust Speed Precip Events Conditions
12:15 AM 62.6 °F 28.4 °F 27% 29.97 in 10.0 mi WNW 6.9 mph - N/A   Mostly Cloudy
12:34 AM 62.6 °F 26.6 °F 26% 29.97 in 10.0 mi WNW 23.0 mph 27.6 mph N/A   Mostly Cloudy
12:55 AM 62.6 °F 26.6 °F 26% 29.98 in 10.0 mi WNW 13.8 mph - N/A   Mostly Cloudy
1:14 AM 60.8 °F 28.4 °F 29% 29.97 in 10.0 mi West 5.8 mph - N/A   Mostly Cloudy
1:35 AM 60.8 °F 28.4 °F 29% 29.97 in 10.0 mi East 5.8 mph - N/A   Mostly Cloudy
1:55 AM 59.0 °F 30.2 °F 34% 29.97 in 10.0 mi SE 9.2 mph - N/A   Overcast
2:14 AM 59.0 °F 30.2 °F 34% 29.97 in 10.0 mi ESE 8.1 mph - N/A   Scattered Clouds
2:35 AM 55.4 °F 32.0 °F 41% 29.97 in 10.0 mi SE 5.8 mph - N/A   Scattered Clouds
2:55 AM 55.4 °F 32.0 °F 41% 29.96 in 10.0 mi South 4.6 mph - N/A   Clear
3:15 AM 53.6 °F 32.0 °F 44% 29.96 in 10.0 mi South 4.6 mph - N/A   Clear
3:34 AM 53.6 °F 32.0 °F 44% 29.96 in 10.0 mi South 6.9 mph - N/A   Clear
3:55 AM 53.6 °F 32.0 °F 44% 29.94 in 10.0 mi South 6.9 mph - N/A   Clear
4:15 AM 53.6 °F 32.0 °F 44% 29.93 in 10.0 mi SSE 4.6 mph - N/A   Clear
4:35 AM 53.6 °F 32.0 °F 44% 29.92 in 10.0 mi Calm Calm - N/A   Clear
4:55 AM 51.8 °F 32.0 °F 47% 29.91 in 10.0 mi South 5.8 mph - N/A   Clear
5:15 AM 50.0 °F 32.0 °F 50% 29.91 in 10.0 mi SSW 5.8 mph - N/A   Clear
5:35 AM 50.0 °F 32.0 °F 50% 29.90 in 10.0 mi SW 3.5 mph - N/A   Clear
5:50 AM 50.0 °F 32.0 °F 50% 29.90 in 30.0 mi Variable 5.8 mph - N/A   Partly Cloudy
5:54 AM 50.0 °F 32.0 °F 50% 29.90 in 10.0 mi South 6.9 mph - N/A   Clear
6:50 AM 50.0 °F 32.0 °F 50% 29.88 in 40.0 mi Variable 5.8 mph - N/A   Partly Cloudy
7:55 AM 55.4 °F 32.0 °F 41% 29.86 in 50.0 mi South 11.5 mph - N/A   Partly Cloudy
8:55 AM 62.6 °F 28.4 °F 27% 29.84 in 50.0 mi South 9.2 mph - N/A   Scattered Clouds
9:52 AM 68.0 °F 17.6 °F 15% 29.82 in 50.0 mi WSW 10.4 mph - N/A   Mostly Cloudy
10:47 AM 73.4 °F 15.8 °F 11% 29.81 in 50.0 mi West 12.7 mph 23.0 mph N/A   Mostly Cloudy
11:45 AM 73.4 °F 14.0 °F 10% 29.82 in 50.0 mi WSW 25.3 mph 33.4 mph N/A   Scattered Clouds
12:45 PM 75.2 °F 14.0 °F 10% 29.79 in 50.0 mi West 21.9 mph 34.5 mph N/A   Scattered Clouds
1:48 PM 77.0 °F 12.2 °F 9% 29.75 in 50.0 mi WSW 17.3 mph 31.1 mph N/A   Scattered Clouds
3:47 PM 75.2 °F 10.4 °F 8% 29.71 in 50.0 mi West 13.8 mph 21.9 mph N/A   Mostly Cloudy
4:46 PM 75.2 °F 12.2 °F 9% 29.69 in 50.0 mi West 13.8 mph - N/A   Mostly Cloudy
5:45 PM 75.2 °F 14.0 °F 10% 29.68 in 50.0 mi West 12.7 mph - N/A   Mostly Cloudy
6:49 PM 75.2 °F 10.4 °F 8% 29.68 in 50.0 mi West 19.6 mph 26.5 mph N/A   Mostly Cloudy
7:52 PM 71.6 °F 12.2 °F 10% 29.68 in 50.0 mi South 3.5 mph - N/A   Mostly Cloudy
8:47 PM 68.0 °F 12.2 °F 12% 29.68 in 30.0 mi Calm Calm - N/A   Mostly Cloudy
9:46 PM 66.2 °F 15.8 °F 14% 29.69 in 20.0 mi WSW 3.5 mph - N/A   Mostly Cloudy
11:15 PM 60.8 °F 21.2 °F 22% 29.68 in 10.0 mi WSW 4.6 mph - N/A   Clear
11:35 PM 60.8 °F 19.4 °F 20% 29.68 in 10.0 mi West 6.9 mph - N/A   Clear
11:55 PM 60.8 °F 21.2 °F 22% 29.68 in 10.0 mi Calm Calm - N/A   Clear